TimeEDT,TemperatureF,Dew PointF,Humidity,Sea Level PressureIn,VisibilityMPH,Wind Direction,Wind SpeedMPH,Gust SpeedMPH,PrecipitationIn,Events,Conditions,WindDirDegrees,DateUTC
12:53 AM,55.9,52.0,87,29.89,10.0,WNW,4.6,-,N/A,,Clear,300,2012-10-01 04:53:00
1:53 AM,54.0,50.0,86,29.90,10.0,NW,3.5,-,N/A,,Clear,310,2012-10-01 05:53:00
2:53 AM,51.1,50.0,96,29.89,10.0,Calm,Calm,-,N/A,,Clear,0,2012-10-01 06:53:00
3:53 AM,51.1,50.0,96,29.89,9.0,WNW,3.5,-,N/A,,Clear,290,2012-10-01 07:53:00
4:53 AM,48.9,48.9,100,29.90,8.0,Calm,Calm,-,N/A,,Clear,0,2012-10-01 08:53:00
5:53 AM,50.0,48.9,96,29.91,8.0,NNW,3.5,-,N/A,,Clear,340,2012-10-01 09:53:00
6:53 AM,52.0,50.0,93,29.92,9.0,Variable,3.5,-,N/A,,Clear,0,2012-10-01 10:53:00
7:53 AM,55.0,52.0,89,29.94,8.0,NNW,3.5,-,N/A,,Clear,340,2012-10-01 11:53:00
8:53 AM,57.9,54.0,87,29.96,9.0,North,3.5,-,N/A,,Clear,350,2012-10-01 12:53:00
10:53 AM,64.9,50.0,58,29.97,10.0,Calm,Calm,-,N/A,,Clear,0,2012-10-01 14:53:00
12:53 PM,66.0,51.1,59,29.96,10.0,ESE,3.5,-,N/A,,Clear,110,2012-10-01 16:53:00
1:53 PM,66.9,52.0,59,29.96,10.0,SSE,4.6,-,N/A,,Clear,160,2012-10-01 17:53:00
2:53 PM,66.9,52.0,59,29.95,10.0,South,3.5,-,N/A,,Scattered Clouds,190,2012-10-01 18:53:00
3:53 PM,66.0,52.0,60,29.95,10.0,Calm,Calm,-,N/A,,Overcast,0,2012-10-01 19:53:00
4:53 PM,66.9,53.1,61,29.95,10.0,Calm,Calm,-,N/A,,Overcast,0,2012-10-01 20:53:00
6:53 PM,66.0,57.9,75,29.96,10.0,South,3.5,-,N/A,,Overcast,180,2012-10-01 22:53:00
7:53 PM,66.0,59.0,78,29.97,10.0,Calm,Calm,-,N/A,,Overcast,0,2012-10-01 23:53:00
8:53 PM,64.0,62.1,93,29.98,10.0,Calm,Calm,-,0.00,,Overcast,0,2012-10-02 00:53:00
9:53 PM,66.0,61.0,84,29.97,10.0,Calm,Calm,-,N/A,,Overcast,0,2012-10-02 01:53:00
10:53 PM,66.9,60.1,79,29.96,10.0,ESE,5.8,-,N/A,,Overcast,110,2012-10-02 02:53:00
11:53 PM,66.9,60.1,79,29.96,10.0,ESE,8.1,-,N/A,,Overcast,120,2012-10-02 03:53:00